Date,TemperatureHighF,TemperatureAvgF,TemperatureLowF,DewpointHighF,DewpointAvgF,DewpointLowF,HumidityHigh,HumidityAvg,HumidityLow,PressureMaxIn,PressureMinIn,WindSpeedMaxMPH,WindSpeedAvgMPH,GustSpeedMaxMPH,PrecipitationSumIn
2013-1-1,29.4,25.1,16.2,24.9,16.6,4.7,87,70,58,29.81,29.65,7,2,27,0.00
2013-1-2,20.2,10.8,-1.5,10.9,0.4,-10.1,76,63,51,30.11,29.88,6,2,16,0.00
2013-1-3,14.3,5.7,-3.2,0.1,-5.2,-10.2,73,61,46,30.13,29.98,4,1,14,0.00
2013-1-4,32.8,21.8,8.3,24.4,15.0,-1.0,92,75,61,29.97,29.76,10,2,12,0.01
2013-1-5,33.7,28.0,19.2,25.4,18.0,12.1,85,67,47,30.23,29.77,6,2,16,0.00
2013-1-6,34.4,28.6,19.0,27.9,22.8,15.1,87,79,71,30.03,29.91,4,0,9,0.00
2013-1-7,32.1,25.4,17.8,28.9,16.5,9.3,89,69,51,30.36,29.93,2,0,7,0.00
2013-1-8,41.4,26.8,14.0,23.6,17.4,8.7,86,69,46,30.35,30.23,5,1,10,0.01
2013-1-9,38.6,28.9,22.9,29.5,22.8,19.1,87,78,67,30.38,29.94,5,0,6,0.00
2013-1-10,40.2,35.4,29.6,25.7,24.0,22.5,75,64,54,30.51,30.30,5,2,16,0.00
2013-1-11,34.1,29.8,24.5,30.6,24.3,20.6,97,80,65,30.50,30.21,3,0,4,0.10
2013-1-12,36.5,35.0,31.4,36.0,34.6,30.6,99,98,97,30.21,30.10,0,0,1,0.08
2013-1-13,38.2,35.7,33.3,37.9,35.4,33.0,100,99,99,30.13,30.00,0,0,0,0.01
2013-1-14,54.4,42.3,32.7,53.8,34.9,25.0,100,76,51,30.23,29.90,7,1,10,0.00
2013-1-15,37.2,31.0,27.5,25.7,22.9,20.9,84,72,56,30.30,30.20,3,0,6,0.00
2013-1-16,28.3,26.9,25.7,26.5,25.1,21.0,97,93,74,30.24,29.78,1,0,4,0.00
2013-1-17,36.1,21.9,15.2,29.6,14.5,3.4,97,74,57,30.10,29.78,3,0,5,0.21
2013-1-18,18.2,11.5,3.4,3.6,-3.8,-11.9,72,50,38,30.39,30.05,5,1,11,0.00
2013-1-19,38.1,27.1,13.6,25.1,16.3,3.7,75,64,53,30.33,29.83,1,0,4,0.01
2013-1-20,44.9,32.4,19.4,32.6,20.8,2.4,87,63,40,29.86,29.47,12,4,20,0.01
2013-1-21,23.2,17.0,11.4,15.4,4.9,-2.9,92,61,41,30.03,29.80,6,1,14,0.00
2013-1-22,20.6,12.8,0.8,14.4,3.0,-4.5,92,66,39,30.03,29.77,7,2,19,0.03
2013-1-23,4.8,-0.7,-6.4,-4.4,-12.3,-16.4,81,58,39,30.13,30.02,5,1,7,0.00
2013-1-24,11.2,3.4,-9.4,-8.5,-12.1,-18.1,65,48,37,30.23,30.07,8,3,15,0.00
2013-1-25,15.6,6.7,-2.3,-1.7,-6.2,-9.9,72,56,38,30.29,30.07,6,1,12,0.00
2013-1-26,16.4,10.1,5.4,3.8,-2.0,-7.3,78,59,38,30.22,30.01,3,1,14,0.00
2013-1-27,8.6,8.1,7.1,1.2,0.7,-0.2,74,71,68,30.28,30.20,3,1,8,0.00
2013-2-1,25.0,17.0,13.9,9.0,4.8,3.1,68,58,47,30.04,29.77,5,1,14,0.00
2013-2-2,21.6,17.8,7.4,13.0,7.6,1.7,82,65,50,30.19,30.02,4,1,10,0.00
2013-2-3,24.5,19.6,13.2,15.2,13.1,11.0,91,76,60,30.04,29.70,6,1,9,0.00
2013-2-4,25.3,18.9,13.4,15.1,6.5,-1.1,82,60,34,29.87,29.68,11,3,16,0.00
2013-2-5,25.5,16.1,5.4,10.4,2.6,-3.2,70,56,39,30.02,29.87,3,0,9,0.00
2013-2-6,32.8,22.5,15.8,22.4,14.1,-2.8,92,72,43,30.26,29.92,7,1,14,0.00
2013-2-7,21.7,16.7,8.2,-0.1,-3.5,-5.6,55,40,32,30.53,30.47,5,1,10,0.00
2013-2-8,17.2,12.6,9.9,10.3,6.3,-0.5,90,77,45,30.50,30.10,9,5,16,0.00
2013-2-9,14.4,11.3,8.6,11.8,8.2,3.9,90,87,79,30.21,29.79,5,3,16,0.00
2013-2-10,33.2,19.0,8.0,11.0,4.8,1.1,79,56,33,30.40,30.20,5,1,11,0.08
2013-2-11,29.5,22.0,14.5,29.0,16.3,2.0,98,80,48,30.33,29.61,1,0,3,0.00
2013-2-12,40.3,33.8,27.5,31.4,28.0,24.7,98,80,60,29.82,29.59,7,2,16,0.25
2013-2-13,38.5,31.1,25.6,24.6,21.0,18.5,78,66,51,29.83,29.72,4,0,10,0.03
2013-2-14,38.1,30.5,25.0,22.8,20.0,18.1,79,65,48,29.96,29.69,2,0,6,0.00
2013-2-15,46.4,33.3,23.2,28.9,22.9,17.7,85,67,48,29.95,29.87,4,0,6,0.00
2013-2-16,36.3,30.3,21.8,24.7,18.0,6.0,82,60,50,29.94,29.74,3,1,9,0.00
2013-2-17,21.8,14.9,9.9,9.9,4.1,-0.2,84,62,50,29.74,29.39,8,4,23,0.00
2013-2-18,26.0,16.3,7.2,2.6,-1.8,-5.8,69,47,26,30.10,29.64,8,3,16,0.00
2013-2-19,37.5,27.8,15.7,33.4,12.6,-5.2,97,56,34,30.15,29.56,7,1,11,0.13
2013-2-20,31.9,26.7,19.9,31.4,20.9,12.9,98,79,60,29.71,29.50,7,2,15,0.00
2013-2-21,22.4,18.4,14.4,15.0,10.8,6.4,83,72,59,30.22,29.70,6,2,15,0.00
2013-2-22,35.9,27.7,18.8,22.3,18.4,14.9,88,69,48,30.41,30.22,4,0,7,0.00
2013-2-23,31.0,28.9,26.1,29.8,26.4,21.5,97,90,77,30.32,29.95,3,0,5,0.01
2013-2-24,32.0,29.4,27.5,31.2,28.7,26.8,98,97,97,29.95,29.74,5,0,7,0.05
2013-2-25,36.3,31.7,27.0,33.9,29.6,26.3,98,92,83,30.21,29.88,1,0,6,0.30
2013-2-26,36.1,33.2,30.5,31.4,30.3,29.0,100,89,80,30.33,30.21,4,1,6,0.00
2013-2-27,32.4,30.4,28.7,31.9,29.8,28.2,100,98,97,29.97,29.64,12,8,21,0.12
2013-2-28,43.0,33.8,28.5,38.4,32.3,27.9,99,94,78,29.64,29.52,7,0,14,0.12
2013-3-1,35.9,32.8,29.7,31.5,28.3,25.7,97,84,71,29.67,29.51,2,0,9,0.00
2013-3-2,39.5,31.4,26.1,28.7,25.6,23.7,94,80,64,29.66,29.61,3,1,9,0.00
2013-3-3,37.3,28.9,24.4,28.6,24.8,22.4,100,85,69,29.64,29.55,3,1,11,0.06
2013-3-4,32.5,26.5,23.7,23.5,20.8,18.4,89,79,68,29.77,29.57,5,2,14,0.00
2013-3-5,34.7,28.2,23.5,30.6,24.0,18.5,90,84,77,30.08,29.77,3,1,7,0.01
2013-3-6,34.5,31.7,28.3,31.2,28.2,24.8,97,87,76,30.19,30.07,13,7,19,0.01
2013-3-7,31.6,28.8,27.6,27.4,25.4,22.8,95,87,75,30.17,30.06,9,4,15,0.00
2013-3-8,43.2,33.4,27.7,29.8,25.6,20.6,96,75,43,30.21,30.01,8,2,13,0.12
2013-3-9,54.2,38.5,26.2,26.5,20.6,13.3,83,54,22,30.34,30.17,4,0,5,0.00
2013-3-10,45.7,35.1,25.9,29.2,26.7,23.6,92,73,48,30.39,30.27,3,0,7,0.00
2013-3-11,48.6,38.4,29.4,35.7,30.7,27.9,95,75,47,30.29,30.10,2,0,6,0.00
2013-3-12,47.6,42.7,37.3,47.6,41.9,34.8,100,97,85,30.11,29.68,6,1,13,0.62
2013-3-13,44.3,38.0,29.6,43.8,30.9,24.3,99,77,51,29.75,29.68,5,1,12,0.00
2013-3-14,32.6,26.1,15.4,25.6,16.4,4.9,85,67,49,29.81,29.65,5,2,13,0.00
2013-3-15,34.2,22.7,12.8,27.2,12.8,2.7,96,67,39,29.82,29.60,8,2,13,0.00
2013-3-16,30.5,25.8,18.6,22.7,12.5,9.0,90,58,44,29.89,29.67,3,0,9,0.07
2013-3-17,28.0,20.2,15.4,12.0,7.8,-1.0,79,60,38,30.31,29.88,6,1,16,0.00
2013-3-18,33.4,22.5,9.9,20.2,3.4,-2.6,77,45,27,30.44,30.24,3,0,5,0.00
2013-3-19,28.7,25.3,21.1,27.7,24.1,19.7,97,95,82,30.24,29.71,13,5,17,0.00
2013-3-20,32.2,25.7,21.3,25.3,21.4,16.9,96,84,68,29.75,29.66,9,2,12,0.21
2013-3-21,39.1,28.0,19.3,18.3,14.6,10.1,81,59,33,29.76,29.58,3,0,5,0.05
2013-3-22,36.0,28.5,20.4,23.6,17.4,14.1,82,64,43,29.69,29.59,5,1,9,0.00
2013-3-23,38.1,32.5,26.3,22.2,20.5,18.0,79,62,45,29.74,29.59,9,3,17,0.00
2013-3-24,41.1,33.9,28.9,25.5,23.1,21.3,76,65,49,29.82,29.73,5,1,13,0.00
2013-3-25,39.0,33.0,25.9,28.1,25.1,21.0,82,73,61,29.78,29.55,8,2,12,0.00
2013-3-26,45.8,36.9,30.0,29.3,23.8,19.4,91,62,37,29.76,29.58,5,1,12,0.00
2013-3-27,46.6,37.7,29.9,31.8,25.9,21.2,90,64,46,29.88,29.74,5,1,13,0.00
2013-3-28,45.0,38.3,32.1,34.0,31.2,29.2,95,77,55,30.01,29.87,2,0,5,0.00
2013-3-29,49.8,42.2,35.3,35.7,32.4,29.9,81,69,53,30.03,29.98,3,0,7,0.00
2013-3-30,51.2,40.4,31.4,30.5,23.8,12.3,86,56,26,30.08,30.00,4,1,11,0.00
2013-3-31,55.4,41.7,27.0,37.2,22.7,13.1,94,49,30,30.10,29.77,7,1,12,0.06
2013-4-1,52.8,38.5,28.4,42.3,32.9,13.0,98,82,49,29.77,29.47,9,2,10,0.41
2013-4-2,34.8,29.4,27.0,18.5,13.0,8.8,63,50,40,29.85,29.72,10,5,20,0.00
2013-4-3,40.7,31.1,22.8,15.1,11.5,7.6,60,45,27,30.12,29.84,10,4,21,0.00
2013-4-4,52.5,38.2,26.0,21.1,15.3,10.5,63,41,24,30.25,29.96,7,2,12,0.00
2013-4-5,54.6,40.5,31.2,29.9,24.5,17.7,74,54,32,29.96,29.66,5,1,10,0.00
2013-4-6,39.6,31.5,22.5,17.5,8.1,3.1,58,38,25,30.32,29.85,5,2,13,0.00
2013-4-7,55.8,39.9,26.8,35.2,18.8,3.1,75,43,31,30.31,29.92,10,2,15,0.00
2013-4-8,58.6,47.0,38.4,37.4,34.0,28.2,91,63,37,30.08,29.91,3,1,15,0.00
2013-4-9,56.2,45.8,40.3,46.3,40.5,35.1,100,83,58,30.06,29.86,4,0,10,0.26
2013-4-10,54.1,46.3,40.8,48.9,42.8,38.1,99,88,71,29.98,29.85,2,0,4,0.71
2013-4-11,43.9,40.3,37.3,41.6,30.2,18.2,98,70,43,30.15,29.85,2,0,9,0.03
2013-4-12,37.7,31.1,28.1,29.8,25.5,18.0,97,82,46,30.19,29.90,7,2,12,0.04
2013-4-13,49.4,44.7,39.7,39.9,36.6,35.0,90,73,61,29.91,29.78,2,0,4,0.50
2013-4-14,47.2,39.6,33.7,36.9,33.5,30.3,95,80,53,30.20,29.89,5,1,12,0.01
2013-4-15,55.0,42.1,28.8,35.9,31.7,26.7,94,69,44,30.36,30.19,6,1,10,0.00
2013-4-16,61.5,48.0,35.8,51.9,41.2,31.7,93,78,53,30.37,29.99,8,2,16,0.06
2013-4-17,57.8,50.3,41.9,52.0,34.5,27.8,94,57,35,30.32,29.99,6,2,12,0.01
2013-4-18,58.0,48.0,35.7,37.4,30.4,24.2,70,51,38,30.42,30.10,7,2,11,0.00
2013-4-19,70.9,59.2,47.9,60.9,52.9,33.5,95,80,54,30.11,29.55,12,3,19,0.35
2013-4-20,59.5,45.8,35.3,58.2,35.2,20.3,96,69,42,30.19,29.58,9,3,14,0.23
2013-4-21,48.1,38.2,31.2,24.1,19.3,16.8,62,47,31,30.68,30.18,5,2,14,0.00
2013-4-22,48.9,39.9,32.6,29.7,21.8,16.1,87,50,31,30.75,30.60,10,4,15,0.00
2013-4-23,37.9,34.2,30.0,36.8,32.0,27.8,97,92,84,30.60,30.18,7,2,10,0.00
2013-4-24,73.3,55.6,37.7,52.4,43.0,36.9,98,68,29,30.17,29.72,6,1,13,0.00
2013-4-25,59.6,51.5,43.6,49.7,34.1,24.2,82,53,33,30.26,29.71,9,3,18,0.00
2013-4-26,55.1,46.9,35.6,35.7,30.0,23.8,66,52,38,30.41,30.27,5,1,11,0.00
2013-4-27,63.7,51.0,37.9,39.4,33.4,24.1,86,55,23,30.41,30.25,4,0,8,0.00
2013-4-28,67.1,53.3,39.7,42.2,36.2,31.5,80,54,32,30.31,30.17,9,1,13,0.00
2013-4-29,67.9,55.1,43.8,45.6,38.1,31.8,66,54,39,30.23,30.13,5,1,13,0.00
2013-4-30,69.5,58.8,50.0,43.3,35.3,30.5,55,42,30,30.33,30.21,4,1,7,0.00
2013-5-1,72.2,58.0,42.4,40.6,33.8,25.1,64,41,25,30.43,30.33,5,1,9,0.00
2013-5-2,76.3,57.3,44.7,48.4,36.9,26.8,62,48,27,30.49,30.31,12,2,18,0.00
2013-5-3,64.5,52.0,37.7,45.8,39.8,32.6,88,64,46,30.51,30.36,5,1,13,0.00
2013-5-4,68.0,53.1,41.2,46.9,40.0,28.8,95,65,24,30.36,30.23,6,1,11,0.00
2013-5-5,68.4,50.9,35.2,43.1,37.0,32.7,92,62,30,30.32,30.19,3,0,11,0.00
2013-5-6,73.0,54.6,37.7,46.6,38.2,26.5,93,61,20,30.25,30.09,2,0,9,0.00
2013-5-7,78.4,62.3,45.0,56.3,47.2,37.2,97,64,25,30.14,30.04,2,0,5,0.00
2013-5-8,71.1,62.1,53.3,62.2,56.8,51.9,97,84,61,30.18,30.03,11,2,15,0.04
2013-5-9,64.0,58.4,54.8,59.5,56.5,54.5,100,94,79,30.03,29.87,2,0,6,0.25
2013-5-10,75.0,63.9,54.1,61.1,56.3,53.8,99,79,50,29.93,29.85,2,0,5,0.00
2013-5-11,64.4,59.9,56.4,62.4,58.1,54.6,100,94,86,29.86,29.64,3,1,7,0.20
2013-5-12,65.8,55.7,43.1,57.6,47.0,26.8,100,75,45,29.74,29.54,1,0,6,0.02
2013-5-13,51.5,43.2,37.4,33.3,30.3,28.0,74,61,46,30.03,29.74,5,1,15,0.01
2013-5-14,56.5,45.5,36.5,35.8,30.5,26.0,86,58,35,30.05,29.95,3,1,10,0.00
2013-5-15,63.9,47.9,33.6,48.8,37.5,27.2,97,70,36,30.03,29.64,7,1,15,0.15
2013-5-16,75.3,59.4,43.2,53.0,44.5,38.1,99,65,28,29.81,29.58,6,1,12,0.01
2013-5-17,64.3,53.6,44.6,45.9,40.0,37.8,81,61,38,30.19,29.81,3,1,12,0.00
2013-5-18,71.3,56.2,43.3,46.9,41.8,34.5,91,62,27,30.29,30.19,4,0,9,0.00
2013-5-19,64.0,52.6,43.9,54.1,48.6,42.8,98,87,63,30.33,30.18,4,0,9,0.07
2013-5-20,70.4,60.7,51.7,63.8,57.8,51.2,100,91,75,30.18,29.93,1,0,5,0.26
2013-5-21,66.7,56.3,48.2,62.0,54.7,47.7,98,94,83,30.09,29.89,8,2,17,0.14
2013-5-22,58.7,52.4,48.2,57.3,51.8,47.6,99,98,92,29.98,29.88,8,0,11,0.44
2013-5-23,66.6,57.6,49.2,66.2,57.4,49.0,100,99,92,29.92,29.75,2,0,12,0.36
2013-5-24,67.6,57.4,44.3,65.3,55.5,43.4,100,94,77,29.83,29.60,3,1,9,0.35
2013-5-25,45.1,41.8,32.0,44.6,40.9,31.2,99,97,91,29.83,29.72,2,0,9,0.81
2013-5-26,52.4,41.9,31.9,41.7,37.1,31.4,98,84,65,30.05,29.69,3,1,10,0.30
2013-5-27,65.8,51.8,36.6,43.8,37.9,33.9,96,63,33,30.18,30.05,4,1,10,0.00
2013-5-28,70.5,57.2,41.0,48.9,41.4,36.3,89,58,37,30.23,30.13,2,0,6,0.00
2013-5-29,55.1,53.4,50.8,54.8,51.2,41.8,100,93,63,30.16,29.98,3,0,7,0.25
2013-5-30,83.6,69.7,54.3,68.2,61.9,54.3,100,79,49,30.05,29.98,4,0,8,0.01
2013-5-31,89.6,77.3,64.1,70.2,64.4,57.9,92,67,41,30.05,29.88,2,0,12,0.00
2013-6-1,90.7,78.0,67.0,71.9,66.1,61.6,87,68,41,29.92,29.78,4,0,9,0.00
2013-6-2,88.3,74.4,64.3,72.7,67.7,63.7,99,82,53,29.80,29.61,6,1,13,0.83
2013-6-3,77.1,66.0,56.1,66.4,59.0,47.2,100,80,44,29.79,29.70,4,0,13,0.01
2013-6-4,62.7,55.7,46.7,47.0,43.3,39.8,77,64,50,30.08,29.79,4,1,14,0.00
2013-6-5,71.2,59.1,46.5,49.2,42.8,37.5,87,58,33,30.17,30.07,2,0,8,0.00
2013-6-6,69.6,60.8,51.4,54.9,47.6,39.1,83,63,45,30.18,30.08,4,1,9,0.00
2013-6-7,55.5,50.7,47.6,51.7,49.3,45.2,98,95,84,30.09,29.88,6,2,12,0.69
2013-6-8,68.8,58.7,50.0,62.4,55.6,49.5,99,90,76,29.99,29.68,7,1,15,1.29
2013-6-9,73.6,64.0,53.5,60.1,55.1,51.7,100,75,53,30.15,29.99,3,0,9,0.00
2013-6-10,67.4,60.2,54.3,59.1,55.4,50.9,98,85,71,30.18,30.01,1,0,4,0.13
2013-6-11,58.0,54.0,51.5,54.6,53.1,51.0,99,97,88,30.01,29.57,7,2,12,0.74
2013-6-12,65.3,58.2,52.6,56.7,53.6,52.2,99,85,68,29.80,29.55,2,1,12,0.00
2013-6-13,65.3,57.2,49.5,57.0,52.9,48.1,98,86,64,29.80,29.69,2,0,8,0.19
2013-6-14,72.8,61.0,51.4,58.6,52.9,48.8,99,78,44,29.77,29.66,3,0,5,0.01
2013-6-15,73.6,64.0,54.2,53.0,47.3,43.2,80,57,35,29.90,29.77,3,0,10,0.00
2013-6-16,71.7,61.8,51.3,59.5,53.8,46.6,96,76,55,29.90,29.68,3,0,9,0.02
2013-6-17,78.7,64.6,55.3,63.6,58.7,54.4,98,83,49,29.87,29.74,3,0,9,0.04
2013-6-18,61.7,57.5,54.0,58.0,55.1,52.6,98,92,80,29.97,29.85,0,0,2,0.06
2013-6-19,71.4,60.1,49.2,54.9,48.4,42.7,100,68,39,30.14,29.92,1,0,5,0.14
2013-6-20,75.3,63.0,47.5,55.3,48.2,43.6,88,60,38,30.25,30.14,2,0,7,0.00
2013-6-21,80.5,67.8,54.6,59.9,53.3,44.7,87,61,40,30.22,30.16,1,0,3,0.00
2013-6-22,80.8,69.6,56.9,68.7,61.1,53.6,93,75,58,30.19,30.06,2,0,4,0.00
2013-6-23,83.9,70.2,63.6,77.3,67.7,62.7,99,92,74,30.11,29.92,2,0,10,0.27
2013-6-24,88.8,74.3,65.9,74.0,69.0,65.6,99,85,53,29.97,29.84,4,0,10,0.16
2013-6-25,87.3,73.6,65.2,73.3,68.0,63.7,99,84,53,29.90,29.70,2,0,9,0.35
2013-6-26,78.0,67.9,63.7,72.1,67.0,63.7,100,97,80,29.84,29.69,1,0,2,0.41
2013-6-27,69.8,63.9,60.2,67.6,63.5,60.1,100,99,92,29.83,29.75,4,0,7,0.04
2013-6-28,63.5,59.9,55.7,63.5,59.8,55.3,100,100,98,29.75,29.48,11,2,13,0.95
2013-6-29,81.4,70.2,62.6,72.4,66.6,62.6,100,89,62,29.66,29.49,5,1,15,0.12
2013-6-30,82.1,71.3,65.3,74.0,67.9,64.9,100,90,69,29.90,29.66,1,0,5,1.04
2013-7-1,74.8,69.8,65.6,71.3,68.5,65.3,100,96,85,30.04,29.90,2,0,4,0.30
2013-7-2,72.9,64.9,59.4,72.1,64.6,59.4,100,99,94,30.19,30.03,5,0,10,0.78
2013-7-3,84.6,70.6,59.0,76.0,67.6,59.0,100,91,70,30.18,30.08,2,0,5,0.02
2013-7-4,89.2,78.0,69.3,76.9,72.8,68.9,99,85,60,30.16,30.02,2,0,6,0.01
2013-7-5,90.5,79.7,71.1,76.7,72.3,70.0,98,80,54,30.11,29.98,2,0,6,0.01
2013-7-6,85.0,77.2,70.9,73.4,69.5,65.3,94,78,60,30.03,29.93,2,0,10,0.00
2013-7-7,85.9,74.8,67.9,73.5,68.5,64.1,99,82,59,29.99,29.87,1,0,3,0.24
2013-7-8,78.7,71.2,63.1,74.6,69.7,62.8,100,96,80,30.05,29.88,4,0,8,1.29
2013-7-9,72.3,66.9,63.4,68.6,65.7,63.1,100,96,86,30.09,30.03,1,0,4,0.00
2013-7-10,72.6,67.8,63.6,71.5,67.4,63.3,100,99,93,30.05,29.76,1,0,5,0.45
2013-7-11,79.9,72.0,65.8,74.7,68.7,60.1,100,90,69,29.94,29.73,1,0,4,0.02
2013-7-12,78.5,68.7,61.5,65.7,60.4,57.1,88,76,56,30.20,29.95,3,0,7,0.00
2013-7-13,77.0,68.8,60.4,68.9,63.7,57.5,96,84,65,30.30,30.20,1,0,4,0.00
2013-7-14,84.2,75.2,66.4,73.6,69.8,65.9,99,84,65,30.29,30.18,1,0,4,0.00
2013-7-15,89.7,78.6,68.4,74.3,68.8,64.1,96,74,52,30.18,30.07,2,0,13,0.00
2013-7-16,88.0,78.6,69.1,73.9,68.3,64.1,87,72,55,30.14,30.09,2,0,12,0.00
2013-7-17,90.9,79.2,67.3,75.6,69.9,64.7,92,74,53,30.15,29.93,3,0,7,0.00
2013-7-18,89.0,76.7,69.8,74.9,71.4,68.7,99,85,54,29.99,29.91,2,0,4,0.18
2013-7-19,91.7,79.4,68.3,78.3,72.7,68.3,100,82,55,29.91,29.65,4,0,9,0.10
2013-7-20,84.5,74.5,66.9,73.0,68.6,65.4,98,83,60,29.76,29.60,3,0,12,0.10
2013-7-21,79.3,70.8,62.9,67.4,63.7,60.1,96,79,55,29.98,29.77,1,0,4,0.00
2013-7-22,72.8,66.5,63.1,68.9,64.6,60.6,99,94,86,30.02,29.90,3,0,6,0.44
2013-7-23,71.2,65.6,61.5,68.8,64.8,61.1,100,97,90,29.89,29.53,4,0,5,1.59
2013-7-24,76.6,66.8,52.2,71.1,61.9,46.9,100,85,66,29.97,29.56,2,0,6,0.01
2013-7-25,69.4,59.7,48.5,59.3,53.3,46.0,93,80,64,30.10,29.97,2,0,6,0.00
2013-7-26,73.3,64.3,59.0,67.8,61.4,58.2,98,91,75,30.08,29.93,1,0,5,0.15
2013-7-27,81.2,69.7,57.5,66.0,60.3,56.6,97,74,47,30.02,29.95,1,0,5,0.00
2013-7-28,78.2,68.0,61.7,70.4,64.7,60.8,99,90,68,30.00,29.94,7,1,10,0.05
2013-7-29,80.1,67.9,63.1,71.0,65.2,61.6,100,92,68,30.03,29.93,3,0,5,0.00
2013-7-30,76.6,67.5,58.0,63.1,58.0,54.6,98,74,48,30.08,30.01,2,0,6,0.01
2013-7-31,79.5,68.8,58.2,63.9,58.4,54.0,90,71,42,30.12,30.01,1,0,4,0.00
2013-8-1,77.7,66.7,58.7,66.3,62.2,57.9,98,87,55,30.02,29.84,3,0,7,0.48
2013-8-2,78.9,67.9,61.2,67.3,61.8,56.8,100,83,47,29.85,29.75,2,0,7,0.02
2013-8-3,76.2,65.6,59.0,63.9,57.7,53.5,96,77,55,29.82,29.74,3,0,9,0.03
2013-8-4,73.0,63.0,55.6,61.8,55.7,51.5,91,77,57,29.87,29.76,2,0,7,0.02
2013-8-5,70.6,59.6,51.5,52.1,47.4,38.9,96,67,33,30.05,29.86,3,1,16,0.00
2013-8-6,74.9,62.9,48.9,58.1,51.6,45.7,91,68,49,30.14,30.03,1,0,5,0.00
2013-8-7,76.2,65.0,53.8,61.8,55.3,49.0,88,72,52,30.17,30.07,2,0,7,0.00
2013-8-8,80.5,69.2,60.3,71.6,64.8,57.4,94,86,69,30.08,29.96,3,0,11,0.00
2013-8-9,73.3,70.0,66.3,72.5,69.1,66.0,100,97,93,29.98,29.71,1,0,7,0.60
2013-8-10,77.0,68.6,57.6,66.8,59.3,50.3,100,75,44,30.00,29.75,2,0,10,0.00
2013-8-11,75.9,64.0,53.0,58.6,53.8,49.6,91,71,48,30.06,29.97,2,0,6,0.00
2013-8-12,78.4,66.8,56.4,61.7,57.1,53.8,93,72,51,30.00,29.89,1,0,6,0.00
2013-8-13,68.9,63.6,59.0,67.0,61.7,57.0,99,94,78,29.90,29.67,1,0,3,0.72
2013-8-14,70.4,62.0,53.7,63.7,55.7,50.0,100,81,58,29.92,29.64,3,1,11,0.00
2013-8-15,72.3,60.3,48.3,57.4,52.2,46.9,96,76,52,30.09,29.92,2,0,4,0.00
2013-8-16,76.0,63.5,51.1,60.6,54.6,49.5,95,74,47,30.18,30.08,1,0,4,0.00
2013-8-17,77.5,66.1,55.3,61.6,56.8,53.6,96,74,48,30.26,30.18,1,0,3,0.00
2013-8-18,76.0,65.8,55.6,64.7,58.8,52.2,92,79,64,30.26,30.05,0,0,4,0.00
2013-8-19,80.4,68.5,56.6,65.5,60.2,55.2,96,76,53,30.05,29.92,2,0,4,0.00
2013-8-20,82.7,71.2,60.6,67.4,62.1,58.7,94,74,50,30.07,29.96,1,0,5,0.00
2013-8-21,84.8,72.8,60.8,69.7,63.5,57.8,96,74,41,30.13,29.99,1,0,4,0.00
2013-8-22,84.9,73.1,63.3,71.0,65.0,61.2,94,77,51,30.00,29.78,2,0,9,0.00
2013-8-23,76.0,67.0,56.7,65.4,56.3,48.4,94,71,44,30.13,29.80,1,0,6,0.00
2013-8-24,64.1,56.2,49.4,52.4,49.0,46.0,88,77,59,30.31,30.13,0,0,1,0.00
2013-8-25,78.5,65.1,49.3,59.7,54.3,47.6,96,70,46,30.35,30.13,2,0,5,0.00
2013-8-26,76.8,66.8,59.0,69.6,63.6,54.9,99,90,74,30.15,29.85,1,0,5,0.34
2013-8-27,84.1,72.5,64.5,70.8,66.7,63.9,99,83,53,29.88,29.82,2,0,5,0.00
2013-8-28,84.5,70.8,62.9,72.7,66.4,62.0,98,87,58,29.99,29.83,6,0,7,0.99
2013-8-29,65.4,62.3,59.5,64.5,61.6,59.2,99,98,93,30.07,29.95,4,0,5,0.06
2013-8-30,82.5,68.5,58.5,70.4,64.3,58.2,100,88,62,30.02,29.78,1,0,6,0.00
2013-8-31,76.7,70.8,66.0,73.2,68.9,65.4,99,94,87,29.80,29.73,1,0,4,0.02
2013-9-1,82.0,73.4,66.7,73.5,69.8,66.4,100,89,65,29.85,29.75,3,0,6,0.71
2013-9-2,72.6,68.8,66.5,70.9,68.4,66.5,100,99,92,29.84,29.70,2,0,7,0.62
2013-9-3,73.2,66.4,61.0,67.9,64.2,57.1,100,93,80,29.78,29.68,1,0,3,0.00
2013-9-4,76.5,65.7,56.7,60.9,58.0,54.3,97,78,48,29.88,29.77,2,0,6,0.00
2013-9-5,65.6,58.0,47.0,58.7,49.5,39.6,97,76,45,30.15,29.83,2,0,5,0.02
2013-9-6,67.0,54.0,41.8,49.4,43.9,39.0,90,70,46,30.25,30.07,1,0,5,0.00
2013-9-7,71.8,59.0,47.8,57.2,50.9,44.6,92,75,53,30.07,29.83,1,0,4,0.02
2013-9-8,63.6,59.0,56.7,57.1,51.0,42.2,88,75,53,29.90,29.73,3,0,11,0.00
2013-9-9,68.6,58.9,44.4,49.6,47.0,41.1,88,66,45,30.22,30.10,2,0,4,0.00
2013-9-10,69.9,60.5,50.2,67.6,58.8,48.4,99,94,82,30.12,30.01,0,0,1,0.10
2013-9-11,90.7,77.0,66.8,77.6,71.9,66.6,100,86,58,30.04,29.89,2,0,4,0.00
2013-9-12,76.5,69.0,65.2,74.3,68.2,65.1,100,97,92,29.87,29.64,1,0,4,0.68
2013-9-13,72.1,62.7,53.6,67.2,60.7,51.6,100,93,77,29.75,29.58,2,0,10,0.12
2013-9-14,62.3,54.8,49.2,54.2,50.8,47.0,96,87,72,30.04,29.74,2,0,6,0.01
2013-9-15,68.2,55.8,44.4,55.0,49.4,43.1,97,80,52,30.14,30.00,1,0,5,0.01
2013-9-16,62.7,53.1,40.0,54.8,47.2,33.6,97,81,62,30.26,29.98,2,0,5,0.02
2013-9-17,63.3,49.1,36.0,48.0,39.8,33.6,94,72,47,30.43,30.27,1,0,4,0.00
2013-9-18,71.3,61.9,52.8,53.4,49.4,44.4,87,65,41,30.28,30.12,1,0,5,0.00
2013-9-19,76.1,61.7,48.4,58.2,51.6,45.7,91,71,40,30.12,30.01,1,0,6,0.00
2013-9-20,76.0,62.1,50.2,61.9,54.6,48.5,95,78,51,30.09,29.98,1,0,5,0.00
2013-9-21,72.1,59.8,50.0,62.2,56.0,49.5,99,88,64,29.99,29.74,7,1,13,0.00
2013-9-22,66.2,57.7,45.7,60.3,51.3,41.1,99,80,61,29.81,29.60,2,0,7,0.51
2013-9-23,54.3,47.5,43.0,43.0,40.1,37.5,89,76,63,29.99,29.81,2,1,12,0.00
2013-9-24,60.5,49.8,42.9,46.2,41.6,37.4,87,74,55,29.97,29.84,3,1,13,0.00
2013-9-25,64.3,53.4,44.5,52.0,46.9,42.4,93,79,62,29.99,29.87,2,0,6,0.00
2013-9-26,66.8,53.9,42.0,52.7,46.8,40.3,94,78,54,30.14,29.99,2,0,5,0.00
2013-9-27,67.1,55.9,50.3,54.4,50.6,47.6,95,83,59,30.26,30.14,2,0,5,0.00
2013-9-28,69.7,58.1,47.0,56.7,51.2,45.9,98,80,50,30.34,30.25,3,0,9,0.00
2013-9-29,69.3,56.5,45.3,57.3,50.7,44.2,98,82,57,30.26,30.10,1,0,5,0.00
2013-9-30,67.8,55.0,42.7,57.7,49.2,41.8,100,83,54,30.12,29.97,4,0,7,0.00
2013-10-1,74.5,60.7,45.5,58.1,52.9,44.5,98,78,48,29.97,29.84,2,0,7,0.01
2013-10-2,76.8,64.6,52.8,62.5,57.0,51.1,94,77,55,29.92,29.80,3,0,7,0.00
2013-10-3,73.7,62.8,53.1,55.4,51.3,48.6,89,68,43,30.07,29.92,2,0,4,0.00
2013-10-4,65.3,56.8,47.5,56.3,51.4,46.0,95,83,61,30.09,30.03,0,0,1,0.00
2013-10-5,61.6,57.8,55.7,54.8,50.4,44.5,93,77,64,30.12,30.05,1,0,3,0.00
2013-10-6,56.5,50.1,46.0,53.8,46.2,41.3,99,87,68,30.25,30.12,4,1,7,0.22
2013-10-7,69.2,56.2,48.9,68.7,55.6,48.6,100,98,88,30.16,29.72,7,1,12,0.39
2013-10-8,61.0,51.6,42.9,50.4,42.2,35.8,94,72,46,30.38,29.89,2,0,7,0.00
2013-10-9,62.2,48.0,36.0,46.5,40.4,33.7,93,76,49,30.49,30.37,2,0,6,0.00
2013-10-10,60.4,49.1,38.0,50.3,43.6,37.2,98,83,51,30.38,30.18,0,0,1,0.00
2013-10-11,65.8,54.4,44.4,52.0,46.2,42.8,95,76,48,30.19,30.13,3,0,6,0.00
2013-10-12,53.9,51.0,46.0,51.5,48.6,44.7,96,92,75,30.41,30.17,5,1,10,0.00
2013-10-13,54.4,48.1,40.8,48.7,45.4,40.3,100,90,77,30.47,30.39,2,0,3,0.00
2013-10-14,63.3,51.1,38.5,53.7,46.0,38.0,99,84,66,30.39,30.23,1,0,2,0.00
2013-10-15,60.5,56.0,51.2,54.5,52.4,48.4,96,88,77,30.26,30.17,2,0,5,0.00
2013-10-16,57.2,52.9,48.5,51.4,49.5,47.1,96,88,74,30.17,29.90,1,0,3,0.00
2013-10-17,70.1,56.9,47.7,55.9,49.4,46.6,98,78,48,29.89,29.68,3,0,7,0.02
2013-10-18,61.6,54.0,47.5,52.4,48.0,37.6,99,81,61,29.87,29.57,5,1,16,0.31
2013-10-19,63.0,51.3,41.4,47.6,41.9,36.3,87,71,53,29.94,29.72,2,0,5,0.00
2013-10-20,57.9,49.0,42.0,46.5,39.7,34.2,97,72,46,29.99,29.65,7,1,13,0.01
2013-10-21,61.8,49.3,37.3,44.9,39.7,34.9,92,71,50,30.09,29.95,4,0,7,0.00
2013-10-22,54.4,47.9,40.5,51.1,43.5,33.5,94,85,70,29.94,29.69,1,0,2,0.02
2013-10-23,52.0,43.0,35.7,37.4,32.9,29.5,86,68,45,29.76,29.57,1,0,4,0.00
2013-10-24,47.4,39.9,32.9,34.1,31.2,28.0,89,72,56,29.86,29.62,7,2,14,0.00
2013-10-25,45.1,36.6,32.1,34.3,28.9,25.3,99,75,49,30.11,29.86,4,0,14,0.00
2013-10-26,45.6,38.5,29.6,34.5,29.2,25.8,90,71,52,30.12,29.85,5,0,8,0.00
2013-10-27,51.6,42.5,34.4,37.4,31.8,27.3,77,66,50,30.02,29.76,5,1,11,0.00
2013-10-28,51.2,38.3,30.6,37.6,29.1,21.3,88,70,53,30.34,30.02,5,1,9,0.00
2013-10-29,45.4,34.2,25.2,25.6,21.0,16.0,81,61,34,30.45,30.34,2,0,7,0.00
2013-10-30,47.2,39.5,32.2,35.3,32.2,25.9,91,76,59,30.30,30.20,2,0,7,0.01
2013-10-31,55.7,40.6,31.6,55.4,39.1,30.1,100,95,86,30.24,29.74,1,0,4,0.20
2013-11-1,64.6,59.1,52.2,61.3,55.0,43.1,100,87,63,29.73,29.35,13,3,16,0.32
2013-11-2,61.5,50.8,39.0,46.0,43.0,36.9,96,76,53,29.75,29.57,3,0,6,0.08
2013-11-3,39.9,34.0,26.5,36.8,23.2,15.3,93,66,43,30.42,29.75,3,0,8,0.00
2013-11-4,40.6,30.2,23.0,19.7,16.4,14.2,74,57,36,30.71,30.42,2,0,5,0.00
2013-11-5,45.4,34.6,24.3,29.8,23.9,15.4,80,65,52,30.72,30.49,3,0,6,0.00
2013-11-6,56.6,44.3,33.3,45.2,37.6,28.3,88,78,62,30.49,29.97,6,1,16,0.00
2013-11-7,54.1,48.3,37.3,53.4,44.1,30.1,98,85,74,29.98,29.65,2,0,10,0.06
2013-11-8,41.1,33.7,27.5,32.2,25.9,22.2,91,73,60,30.04,29.78,4,1,11,0.00
2013-11-9,38.4,34.2,30.3,24.9,22.2,20.2,67,61,52,30.17,30.04,3,1,9,0.00
2013-11-10,38.9,37.4,36.2,37.6,35.3,32.7,97,92,84,29.82,29.74,3,0,6,0.10
2013-11-11,47.0,38.8,33.3,32.6,28.5,25.9,88,67,46,30.06,29.83,4,1,8,0.00
2013-11-12,40.7,29.0,23.6,33.6,19.9,14.1,89,69,58,30.16,29.84,4,1,10,0.00
2013-11-13,30.9,24.4,18.0,17.1,12.6,9.4,77,61,45,30.29,30.10,4,1,11,0.00
2013-11-14,45.9,34.5,24.8,29.9,23.4,15.9,74,64,50,30.10,30.02,5,0,10,0.00
2013-11-15,49.0,38.0,29.7,25.1,21.6,17.9,76,53,29,30.18,30.08,1,0,2,0.00
2013-11-16,57.5,43.7,33.8,30.5,25.8,20.7,69,50,34,30.30,30.16,1,0,3,0.00
2013-11-17,42.7,38.0,31.8,42.2,33.6,26.3,98,85,57,30.30,30.09,0,0,3,0.08
2013-11-18,59.2,51.8,42.8,56.7,42.3,31.3,100,72,49,29.61,29.48,7,2,17,0.37
2013-11-19,42.8,33.0,27.2,31.8,20.9,16.0,83,61,49,30.28,29.60,5,2,14,0.00
2013-11-20,37.0,28.6,23.5,17.5,14.8,12.0,70,57,37,30.63,30.28,4,1,9,0.00
2013-11-21,43.1,31.7,20.2,20.2,14.7,10.2,75,51,29,30.64,30.35,1,0,4,0.00
2013-11-22,36.1,34.5,32.3,35.3,31.3,19.7,99,89,57,30.35,29.79,0,0,0,0.09
2013-11-23,38.8,32.0,22.4,38.5,25.2,15.7,99,78,46,29.90,29.73,7,2,17,0.02
2013-11-24,22.2,17.2,13.3,14.9,4.9,-1.5,79,59,45,30.15,29.75,9,4,17,0.00
2013-11-25,26.0,22.2,13.0,12.9,3.6,-5.4,61,45,31,30.36,30.22,5,1,13,0.00
2013-11-26,31.5,27.4,23.3,29.1,22.7,12.8,96,83,62,30.31,30.09,1,0,4,0.03
2013-11-27,47.5,38.6,30.1,47.2,37.7,27.8,99,97,84,30.09,29.23,11,2,14,1.65
2013-11-28,32.1,23.7,14.4,27.8,14.3,6.9,84,68,47,30.41,29.39,9,3,18,0.00
2013-11-29,25.8,17.2,11.8,10.7,7.6,5.7,80,67,45,30.76,30.40,3,0,7,0.00
2013-11-30,26.2,18.4,8.3,16.7,10.2,4.4,85,71,51,30.82,30.44,3,0,6,0.00
2013-12-1,33.4,29.6,25.0,31.5,25.8,16.6,96,86,70,30.43,30.04,1,0,5,0.00
2013-12-2,38.0,34.4,31.1,35.3,32.6,29.6,97,93,89,30.05,29.91,2,0,5,0.00
2013-12-3,45.4,35.1,30.0,37.5,31.1,28.2,99,86,59,29.93,29.85,1,0,4,0.00
2013-12-4,39.3,32.1,28.1,28.4,25.1,21.9,89,75,61,30.19,29.92,3,0,7,0.00
2013-12-5,35.2,32.9,27.9,34.7,30.7,23.9,99,92,80,30.22,29.90,1,0,3,0.07
2013-12-6,43.7,38.1,29.9,43.4,35.5,26.1,99,91,75,30.13,29.85,2,0,6,0.08
2013-12-7,32.7,28.2,21.1,28.2,20.3,13.4,95,73,53,30.43,30.06,4,0,12,0.02
2013-12-8,25.9,22.3,18.6,14.8,12.7,11.0,78,67,55,30.57,30.43,1,0,5,0.00
2013-12-9,26.3,23.0,20.0,25.6,20.0,12.9,97,88,65,30.50,29.87,6,2,10,0.00
2013-12-10,30.8,25.9,17.1,28.5,23.0,12.2,97,89,72,29.93,29.76,0,0,2,0.00
2013-12-11,27.3,20.4,14.9,17.0,13.3,10.6,91,74,56,30.15,29.93,7,1,13,0.01
2013-12-12,18.3,12.2,8.3,11.8,3.2,-1.6,86,68,44,30.26,30.00,4,0,9,0.00
2013-12-13,22.4,11.1,1.4,15.0,4.2,-6.2,86,74,56,30.42,29.93,2,0,7,0.00
2013-12-14,9.8,4.8,-1.0,6.0,-3.8,-9.3,89,68,50,30.62,30.25,9,1,12,0.00
2013-12-15,25.5,16.8,8.2,24.1,14.7,5.6,95,91,89,30.25,29.47,13,4,18,0.00
2013-12-16,20.7,15.4,2.2,16.0,7.5,-5.1,91,72,47,30.20,29.69,10,2,19,0.00
2013-12-17,11.9,4.0,-5.8,9.3,-1.4,-11.0,90,78,61,30.27,30.02,3,0,5,0.00
2013-12-18,29.7,20.1,11.8,21.0,15.6,9.2,91,83,67,30.03,29.90,3,0,9,0.10
2013-12-19,34.5,27.9,21.2,26.3,22.0,18.0,92,79,63,30.08,29.92,5,0,7,0.01
2013-12-20,38.3,34.2,30.5,32.6,28.2,25.3,85,79,70,30.10,29.90,0,0,0,0.07
2013-12-21,44.1,39.3,34.4,43.6,36.5,31.5,99,90,79,29.92,29.83,0,0,0,0.11
2013-12-22,42.9,32.8,28.6,42.6,32.4,28.1,99,98,98,30.04,29.77,6,1,11,0.15
2013-12-23,33.2,30.3,27.9,33.0,30.0,27.4,99,99,98,30.11,29.96,1,0,3,0.22
2013-12-24,31.3,24.4,12.4,30.9,18.6,7.1,99,79,60,30.20,30.05,2,0,11,0.01
2013-12-25,18.2,10.3,2.5,6.8,1.4,-4.8,80,67,52,30.54,30.20,3,0,10,0.00
2013-12-26,21.5,17.2,11.9,19.8,13.6,4.3,99,86,68,30.50,30.11,1,0,3,0.00
2013-12-27,29.7,23.6,19.1,21.7,19.2,16.7,93,84,68,30.23,30.16,3,0,9,0.06
2013-12-28,36.6,28.7,19.9,31.6,24.6,17.3,90,84,74,30.18,29.96,3,0,7,0.04
2013-12-29,35.7,31.8,29.1,31.4,29.6,26.8,98,92,80,30.00,29.53,0,0,0,0.16
2013-12-30,34.3,23.8,3.2,32.3,20.3,-2.4,98,87,73,30.17,29.53,4,1,12,0.26
2013-12-31,14.5,6.7,-2.1,9.1,0.4,-7.1,91,75,58,30.15,30.03,2,0,5,0.00
2014-1-1,19.7,11.5,6.9,9.0,5.7,2.8,91,77,60,30.39,30.15,6,1,12,0.00
2014-1-2,8.7,2.9,-3.4,4.0,-0.6,-6.8,88,85,78,30.39,29.95,8,2,14,0.00